New Iberia, LA

1:40 AM CDT on April 27, 2017 (GMT -0500)
Acadiana Regional

Weather History for KARA - October, 2013

Change the Weather History Date:

Saturday, October 19, 2013

  Actual Average Record
Temperature  
Mean Temperature 68 °F 69 °F  
Max Temperature 77 °F 81 °F 90 °F (1953)
Min Temperature 58 °F 58 °F 34 °F (1948)
Degree Days  
Heating Degree Days 0 1  
Month to date heating degree days 0 8  
Since 1 July heating degree days 0 9  
Cooling Degree Days 3 5  
Month to date cooling degree days 210 138  
Year to date cooling degree days 3088 2694  
Growing Degree Days 18 (Base 50)    
Moisture  
Dew Point 60 °F    
Average Humidity 74    
Maximum Humidity 93    
Minimum Humidity 54    
Precipitation  
Precipitation 1.14 in 0.18 in 4.47 in (1980)
Month to date precipitation 3.40 3.65  
Year to date precipitation 60.49 49.13  
Sea Level Pressure  
Sea Level Pressure 30.00 in    
Wind  
Wind Speed 10 mph (North)    
Max Wind Speed 18 mph    
Max Gust Speed 23 mph    
Visibility 8 miles    
Events Rain    
T = Trace of Precipitation, MM = Missing Value Source: NWS Daily Summary

Daily Weather History Graph

Daily Weather History Graph

Search for Another Location

Airport or City:

Trip Planner

Search our weather history database for the weather conditions in past years. The results will help you decide how hot, cold, wet, or windy it might be!

Date:

Astronomy

Oct. 19, 2013 Rise Set
Actual Time 7:12 AM CDT 6:32 PM CDT
Civil Twilight 6:48 AM CDT 6:56 PM CDT
Nautical Twilight 6:20 AM CDT 7:24 PM CDT
Astronomical Twilight 5:52 AM CDT 7:52 PM CDT
Moon 7:05 PM CDT (10/19) 7:46 AM CDT (10/19)
Length of Visible Light 12h 08m
Length of Day
11h 19m
Waxing Gibbous, 99% of the Moon is Illuminated
Oct 19
Waxing Gibbous
Oct 26
Last Quarter
Nov 3
New
Nov 9
First Quarter
Nov 17
Full

Hourly Weather History & Observations

Time (CDT) Temp. Dew Point Humidity Pressure Visibility Wind Dir Wind Speed Gust Speed Precip Events Conditions
12:53 AM 66.0 °F 59.0 °F 78% 29.93 in 10.0 mi NNE 4.6 mph - N/A   Clear
1:53 AM 66.0 °F 60.1 °F 81% 29.93 in 10.0 mi NE 5.8 mph - N/A   Partly Cloudy
2:53 AM 64.9 °F 60.1 °F 84% 29.94 in 5.0 mi North 9.2 mph - 0.02 in Rain Rain
3:43 AM 64.4 °F 60.8 °F 88% 29.94 in 2.0 mi North 12.7 mph 20.7 mph 0.19 in Rain Heavy Rain
3:50 AM 64.4 °F 60.8 °F 88% 29.95 in 4.0 mi North 15.0 mph 23.0 mph 0.20 in Rain Rain
3:53 AM 64.0 °F 61.0 °F 90% 29.95 in 5.0 mi North 17.3 mph 23.0 mph 0.20 in Rain Light Rain
4:18 AM 64.4 °F 60.8 °F 88% 29.96 in 2.5 mi North 10.4 mph 19.6 mph 0.14 in Rain Heavy Rain
4:34 AM 64.4 °F 60.8 °F 88% 29.97 in 1.5 mi North 5.8 mph - 0.40 in Rain Heavy Rain
4:50 AM 64.4 °F 60.8 °F 88% 29.98 in 2.0 mi SE 4.6 mph - 0.57 in Rain Heavy Rain
4:51 AM 64.0 °F 61.0 °F 90% 29.97 in 2.0 mi ESE 4.6 mph - 0.57 in Rain Heavy Rain
5:12 AM 64.4 °F 62.6 °F 94% 29.96 in 3.0 mi ENE 8.1 mph - 0.13 in Rain Heavy Rain
5:53 AM 64.9 °F 62.1 °F 90% 29.97 in 4.0 mi North 6.9 mph - 0.24 in Rain Heavy Rain
6:05 AM 64.4 °F 62.6 °F 94% 29.96 in 2.5 mi NNE 9.2 mph - 0.08 in Rain Heavy Rain
6:16 AM 64.4 °F 62.6 °F 94% 29.95 in 6.0 mi NE 9.2 mph - 0.09 in Rain Light Rain
6:53 AM 64.9 °F 62.1 °F 90% 29.94 in 9.0 mi ENE 8.1 mph - 0.10 in Rain Light Rain
7:53 AM 64.9 °F 61.0 °F 87% 29.99 in 10.0 mi North 8.1 mph - 0.01 in   Overcast
8:02 AM 64.4 °F 60.8 °F 88% 29.99 in 10.0 mi North 12.7 mph - N/A   Overcast
8:32 AM 64.4 °F 62.6 °F 94% 30.01 in 10.0 mi North 4.6 mph - N/A   Overcast
8:42 AM 66.2 °F 62.6 °F 88% 30.01 in 9.0 mi NNE 4.6 mph - N/A   Overcast
8:53 AM 66.0 °F 62.1 °F 87% 30.01 in 9.0 mi NNE 5.8 mph - N/A   Overcast
9:18 AM 66.2 °F 62.6 °F 88% 30.02 in 10.0 mi North 6.9 mph - N/A   Overcast
9:28 AM 66.2 °F 62.6 °F 88% 30.02 in 10.0 mi North 10.4 mph - N/A   Overcast
9:53 AM 66.9 °F 62.1 °F 84% 30.02 in 10.0 mi North 9.2 mph - N/A   Overcast
10:50 AM 68.0 °F 62.6 °F 83% 30.04 in 10.0 mi North 8.1 mph - N/A   Mostly Cloudy
10:53 AM 69.1 °F 62.1 °F 78% 30.04 in 10.0 mi North 9.2 mph - N/A   Overcast
11:42 AM 71.6 °F 60.8 °F 69% 30.04 in 10.0 mi North 11.5 mph 19.6 mph N/A   Mostly Cloudy
11:53 AM 70.0 °F 60.1 °F 71% 30.04 in 10.0 mi NNE 12.7 mph - N/A   Mostly Cloudy
12:53 PM 73.0 °F 60.1 °F 64% 30.02 in 10.0 mi North 15.0 mph 19.6 mph N/A   Scattered Clouds
1:24 PM 73.4 °F 59.0 °F 61% 30.01 in 10.0 mi North 13.8 mph - N/A   Mostly Cloudy
1:53 PM 73.0 °F 59.0 °F 61% 30.00 in 10.0 mi North 13.8 mph - N/A   Mostly Cloudy
2:13 PM 75.2 °F 59.0 °F 57% 30.00 in 10.0 mi North 9.2 mph - N/A   Scattered Clouds
2:53 PM 75.9 °F 57.9 °F 54% 29.99 in 10.0 mi North 10.4 mph - N/A   Partly Cloudy
3:53 PM 75.9 °F 57.9 °F 54% 29.99 in 10.0 mi North 11.5 mph - N/A   Scattered Clouds
4:53 PM 73.9 °F 60.1 °F 62% 29.99 in 10.0 mi NNW 12.7 mph - N/A   Scattered Clouds
5:53 PM 71.1 °F 59.0 °F 66% 30.00 in 10.0 mi North 11.5 mph - N/A   Clear
6:53 PM 68.0 °F 59.0 °F 73% 30.02 in 10.0 mi NNW 5.8 mph - N/A   Clear
7:53 PM 64.9 °F 57.9 °F 78% 30.04 in 10.0 mi North 6.9 mph - N/A   Clear
8:53 PM 64.0 °F 55.9 °F 75% 30.05 in 10.0 mi North 9.2 mph - N/A   Clear
9:53 PM 62.1 °F 55.9 °F 80% 30.06 in 10.0 mi North 6.9 mph - N/A   Scattered Clouds
10:53 PM 61.0 °F 55.0 °F 81% 30.06 in 10.0 mi North 9.2 mph - N/A   Clear
11:53 PM 59.0 °F 54.0 °F 83% 30.06 in 10.0 mi North 8.1 mph - N/A   Clear